Regional Weather Roundup
Issued by NWS

Home | Current Version | Previous Version | Graphics & Text | Print | Product List | Glossary On
Versions: 1 2 3 4 5 6 7 8 9 10 11 12 13 14 15 16 17 18 19 20 21 22 23 24 25 26 27 28 29 30 31 32 33 34 35 36 37 38 39 40 41 42 43 44 45 46 47 48 49 50
000
ASUS43 KLOT 262100
RWRIL

ILLINOIS REGIONAL WEATHER ROUNDUP
NATIONAL WEATHER SERVICE CHICAGO/ROMEOVILLE IL
300 PM CST WED NOV 26 2014

NOTE: "FAIR" INDICATES FEW OR NO CLOUDS BELOW 12,000 FEET WITH NO
SIGNIFICANT WEATHER AND/OR OBSTRUCTIONS TO VISIBILITY.

* THESE STATIONS ARE NOT UNDER NWS QUALITY CONTROL. THEY ALSO MAY NOT
  REPORT WEATHER SUCH AS PRECIPITATION OR FOG.

ILZ001-002-007-009-015-016-024-262200-
NORTHWEST ILLINOIS

CITY           SKY/WX    TMP DP  RH WIND       PRES   REMARKS
MOLINE         CLOUDY    29  24  82 E15       30.07R HAZE    WCI  18
STERLING*      CLOUDY    28  21  74 E10       30.10S WCI  19
$$

ILZ003-004-008-010-011-017-018-262200-
NORTH CENTRAL ILLINOIS

CITY           SKY/WX    TMP DP  RH WIND       PRES   REMARKS
ROCKFORD       CLOUDY    26  19  74 E6        30.14R WCI  19
$$

ILZ005-006-012>014-019>023-262200-
NORTHEAST ILLINOIS

CITY           SKY/WX    TMP DP  RH WIND       PRES   REMARKS
CHICAGO-OHARE  CLOUDY    28  20  71 E8        30.10S WCI  20
CHICAGO-MIDWAY CLOUDY    29  19  66 E6        30.12R WCI  23
AURORA         CLOUDY    28  18  66 E5        30.11R WCI  23
WAUKEGAN       CLOUDY    29  23  78 CALM      30.11R
DUPAGE AIRPORT CLOUDY    27  19  72 SE7       30.10R WCI  19
WHEELING       CLOUDY    29  21  72 VRB5      30.13R WCI  24
NORTHERLY ISL    N/A     27  21  78 SE6         N/A  WCI  21
$$

LMZ740>746-262200-
SOUTHERN LAKE MICHIGAN

STATION/POSITION SKY/WX   TEMP    WIND        PRES    VSBY  WAVE
                          AIR SEA DIR/SP/G                  HT/PER
                          (F)     (DEG/KT/KT) (MB)    (MI)  (FT/S)
SOUTHERN BUOY              31 42  160/  4/  6 1020.6F         1/ 3
WAUKEGAN HARBOR            29     360/  3/  4   N/A
HARRISON CRIB              27     140/  6/ 10   N/A
BURNHAM HARBOR             27     150/  4/  8   N/A
CALUMET HARBOR             26      80/  4/  6 1018.6R
MICHIGAN CITY              27      70/  5/  8   N/A
$$

ILZ025>027-034>036-040-047-049-050-058-095>099-262200-
WEST-CENTRAL ILLINOIS

CITY           SKY/WX    TMP DP  RH WIND       PRES   REMARKS
QUINCY         MIX PCPN  32  29  88 E9        29.98R FOG     WCI  24
$$

ILZ028>032-037-038-041>044-048-051>054-059>061-262200-
CENTRAL ILLINOIS

CITY           SKY/WX    TMP DP  RH WIND       PRES   REMARKS
DECATUR        LGT SNOW  29  26  89 E12       30.06R VSB 1   WCI  19
PEORIA         LGT SNOW  32  25  75 E9        30.06S WCI  24
SPRINGFIELD    LGT SNOW  32  30  92 E13       30.02S FOG     WCI  22
TAYLORVILLE    NOT AVBL
$$

ILZ033-039-045-046-055>057-062-063-262200-
EAST-CENTRAL ILLINOIS

CITY           SKY/WX    TMP DP  RH WIND       PRES   REMARKS
CHAMPAIGN      PTSUNNY   29  24  82 E9        30.06S WCI  20
MATTOON        CLOUDY    29  24  82 E5        30.04S WCI  24
$$

ILZ079-100>102-262200-
SOUTHWEST ILLINOIS

CITY           SKY/WX    TMP DP  RH WIND       PRES   REMARKS
BELLEVILLE     SNOW      33  32  99 NE2       30.00R VSB 1/2
CAHOKIA*       SNOW      33  32  96 CALM      30.01R VSB 1/2
$$

ILZ064>066-069>071-074>076-080>082-084>086-088>090-092>094-262200-
SOUTH-CENTRAL ILLINOIS

CITY           SKY/WX    TMP DP  RH WIND       PRES   REMARKS
CARBONDALE     RAIN      35  32  88 SE8       29.99R FOG     WCI  29
MT. VERNON     CLOUDY    37  28  70 E8        30.01S WCI  31
$$

ILZ067-068-072-073-078-083-087-091-262200-
SOUTHEAST ILLINOIS

CITY           SKY/WX    TMP DP  RH WIND       PRES   REMARKS
LAWRENCEVILLE  MOSUNNY   39  27  62 E3        30.04F
$$

ABBREVIATIONS USED IN REMARKS
   TC - TEMPERATURE IN CELSIUS
  WCI - WIND CHILL INDEX
   HX - HEAT INDEX
  VSB - VISIBILITY
$$



USA.gov is the U.S. government's official web portal to all federal, state and local government web resources and services.